Overview Statistics Trail Chart Weather Telemetry Raw packets
 

This is the latest recevied weather packets stored in our database for station/object N0HOT. If no packets are shown the sender has not sent any weather packets the latest 10 day(s).

<< 39 40 41 42 43 44 45 >>
Time Temp. Humidity Pressure Rain* Wind** Luminosity Snow
1788391279 29.44° C 59% 1010.8 hPa 0 mm - 35 W/m² -
1788390978 29.44° C 56% 1010.8 hPa 0 mm - 37 W/m² -
1788390673 29.44° C 56% 1010.5 hPa 0 mm - 39 W/m² -
1788390369 29.44° C 58% 1010.5 hPa 0 mm - 41 W/m² -
1788390067 30° C 57% 1010.5 hPa 0 mm - 41 W/m² -
1788389762 30° C 58% 1010.5 hPa 0 mm - 42 W/m² -
1788389462 30° C 57% 1010.5 hPa 0 mm - 45 W/m² -
1788389161 30° C 57% 1010.8 hPa 0 mm - 47 W/m² -
1788388856 30.56° C 56% 1010.8 hPa 0 mm - 48 W/m² -
1788388553 30.56° C 57% 1010.8 hPa 0 mm - 64 W/m² -
1788388252 30.56° C 56% 1011.1 hPa 0 mm - 65 W/m² -
1788387950 30.56° C 54% 1010.8 hPa 0 mm - 52 W/m² -
1788387649 30.56° C 56% 1010.8 hPa 0 mm - 55 W/m² -
1788387344 30.56° C 55% 1010.8 hPa 0 mm - 62 W/m² -
1788387039 31.11° C 55% 1011.1 hPa 0 mm - 55 W/m² -
1788386734 31.11° C 54% 1011.1 hPa 0 mm - 54 W/m² -
1788386429 31.67° C 54% 1011.1 hPa 0 mm - 80 W/m² -
1788386125 31.67° C 55% 1011.1 hPa 0 mm - 123 W/m² -
1788385820 31.67° C 53% 1011.1 hPa 0 mm - 71 W/m² -
1788385520 32.22° C 50% 1011.1 hPa 0 mm - 150 W/m² -
1788385219 31.67° C 50% 1010.8 hPa 0 mm - 358 W/m² -
1788384915 31.67° C 52% 1010.8 hPa 0 mm - 356 W/m² -
1788384614 31.67° C 55% 1010.8 hPa 0 mm - 401 W/m² -
1788384310 32.22° C 53% 1010.8 hPa 0 mm - 436 W/m² -
1788384006 32.22° C 50% 1011.1 hPa 0 mm - 461 W/m² -

* Rain latest hour (hover to see other rain measurements)
** Current wind speed in m/s (hover to see current wind gust speed)